Location: Unspecified
(0.0000°N, 0.0000°E)
Time: 15:25:34
(UTC+00:00)

TIGRISAT - Visible Passes

Search period start: 09 August 2020 00:00
Search period end: 19 August 2020 00:00
Orbit: 605 x 689 km, 97.7° (Epoch: 09 August)

Date Brightness Start Highest point End Pass type
(mag) Time Alt. Az. Time Alt. Az. Time Alt. Az.
09 Aug ? 19:05:45 10° NE 19:06:40 14° ENE 19:06:40 14° ENE visible
09 Aug ? 20:43:09 10° NW 20:44:23 13° WNW 20:44:23 13° WNW visible
10 Aug ? 19:30:26 10° NNE 19:32:27 26° NE 19:32:27 26° NE visible
11 Aug ? 19:55:53 10° N 19:58:13 32° N 19:58:13 32° N visible
12 Aug ? 20:22:04 10° NNW 20:23:59 21° NW 20:23:59 21° NW visible
13 Aug ? 19:11:12 10° NE 19:12:02 14° NE 19:12:02 14° NE visible
14 Aug ? 19:36:05 10° NNE 19:37:47 23° NNE 19:37:47 23° NNE visible
15 Aug ? 20:01:43 10° N 20:03:32 24° NNW 20:03:32 24° NNW visible
16 Aug ? 20:28:06 10° NNW 20:29:17 15° NW 20:29:17 15° NW visible
17 Aug ? 19:16:41 10° NE 19:17:18 13° NE 19:17:18 13° NE visible
18 Aug ? 19:41:47 10° NNE 19:43:02 19° NNE 19:43:02 19° NNE visible
